Wetterdaten: aktuell Mittwoch, 06.05.2026 16:03
Datum Zeit Temp. A. Feuchte A. Luftdruck Regen Wind Richtung Richtung Sonnenschein Regendauer Taupunkt Windchill
06.05.2026 16:03 24,3 °C 41 % 999,2 hPa 0,0 mm 5,8 km/h (2 Bft) S-SW 195 ° 6 min 0 min 10,2 °C 24,3 °C
06.05.2026 15:58 22,9 °C 42 % 1000,5 hPa 0,0 mm 6,7 km/h (2 Bft) NW 325 ° 5 min 0 min 9,3 °C 22,9 °C
06.05.2026 15:53 23,0 °C 40 % 1000,5 hPa 0,0 mm 12,2 km/h (2 Bft) W-NW 295 ° 5 min 0 min 8,7 °C 23,0 °C
06.05.2026 15:48 23,2 °C 41 % 1000,4 hPa 0,0 mm 15,2 km/h (3 Bft) S-SO 150 ° 5 min 0 min 9,2 °C 23,2 °C
06.05.2026 15:43 23,8 °C 42 % 1000,3 hPa 0,0 mm 8,9 km/h (2 Bft) S-SO 150 ° 5 min 0 min 10,1 °C 23,8 °C
06.05.2026 15:38 23,6 °C 41 % 1000,4 hPa 0,0 mm 9,2 km/h (2 Bft) S 185 ° 5 min 0 min 9,6 °C 23,6 °C
06.05.2026 15:33 24,0 °C 40 % 1000,3 hPa 0,0 mm 4,0 km/h (1 Bft) S 190 ° 6 min 0 min 9,6 °C 24,0 °C
06.05.2026 15:28 23,5 °C 43 % 1000,4 hPa 0,0 mm 11,1 km/h (2 Bft) S-SO 165 ° 4 min 0 min 10,2 °C 23,5 °C
06.05.2026 15:23 24,6 °C 43 % 1000,2 hPa 0,0 mm 6,0 km/h (2 Bft) W 265 ° 6 min 0 min 11,2 °C 24,6 °C
06.05.2026 15:18 23,6 °C 45 % 1000,4 hPa 0,0 mm 6,4 km/h (2 Bft) S-SW 195 ° 4 min 0 min 11,0 °C 23,6 °C
06.05.2026 15:13 23,2 °C 45 % 1000,4 hPa 0,0 mm 9,4 km/h (2 Bft) N-NO 25 ° 5 min 0 min 10,6 °C 23,2 °C
06.05.2026 15:08 25,2 °C 43 % 1000,1 hPa 0,0 mm 4,7 km/h (1 Bft) SO 145 ° 3 min 0 min 11,7 °C 25,2 °C
06.05.2026 15:03 24,9 °C 43 % 1000,1 hPa 0,0 mm 4,9 km/h (1 Bft) O 95 ° 7 min 0 min 11,4 °C 24,9 °C
06.05.2026 14:58 24,4 °C 44 % 1001,3 hPa 0,0 mm 6,5 km/h (2 Bft) NO 45 ° 3 min 0 min 11,3 °C 24,4 °C
06.05.2026 14:53 24,1 °C 44 % 1001,3 hPa 0,0 mm 4,7 km/h (1 Bft) S-SO 160 ° 7 min 0 min 11,1 °C 24,1 °C
06.05.2026 14:48 22,5 °C 46 % 1001,6 hPa 0,0 mm 6,5 km/h (2 Bft) NW 310 ° 6 min 0 min 10,3 °C 22,5 °C
06.05.2026 14:43 23,2 °C 47 % 1001,5 hPa 0,0 mm 9,4 km/h (2 Bft) S 175 ° 4 min 0 min 11,3 °C 23,2 °C
06.05.2026 14:38 22,6 °C 50 % 1001,6 hPa 0,0 mm 13,8 km/h (3 Bft) S-SW 200 ° 6 min 0 min 11,6 °C 22,6 °C
06.05.2026 14:33 23,0 °C 48 % 1001,5 hPa 0,0 mm 2,2 km/h (1 Bft) S-SW 205 ° 4 min 0 min 11,4 °C 23,0 °C
06.05.2026 14:28 21,9 °C 51 % 1001,7 hPa 0,0 mm 0,4 km/h (0 Bft) SW 235 ° 5 min 0 min 11,3 °C 21,9 °C
06.05.2026 14:23 21,7 °C 51 % 1001,8 hPa 0,0 mm 3,8 km/h (1 Bft) S 180 ° 3 min 0 min 11,1 °C 21,7 °C
06.05.2026 14:18 21,2 °C 52 % 1001,9 hPa 0,0 mm 5,3 km/h (1 Bft) N 5 ° 5 min 0 min 10,9 °C 21,2 °C
06.05.2026 14:13 21,1 °C 51 % 1002,9 hPa 0,0 mm 15,2 km/h (3 Bft) S 180 ° 6 min 0 min 10,6 °C 21,1 °C
06.05.2026 14:08 21,7 °C 52 % 1002,8 hPa 0,0 mm 7,8 km/h (2 Bft) S-SW 200 ° 4 min 0 min 11,4 °C 21,7 °C
06.05.2026 14:03 21,7 °C 52 % 1002,8 hPa 0,0 mm 5,5 km/h (2 Bft) SO 140 ° 6 min 0 min 11,4 °C 21,7 °C
06.05.2026 13:58 21,0 °C 52 % 1001,9 hPa 0,0 mm 5,6 km/h (2 Bft) O 100 ° 6 min 0 min 10,8 °C 21,0 °C
06.05.2026 13:53 20,8 °C 51 % 1001,9 hPa 0,0 mm 10,3 km/h (2 Bft) S-SO 150 ° 5 min 0 min 10,3 °C 20,8 °C
06.05.2026 13:48 21,0 °C 51 % 1001,9 hPa 0,0 mm 7,4 km/h (2 Bft) S 180 ° 5 min 0 min 10,5 °C 21,0 °C
06.05.2026 13:43 20,7 °C 51 % 1003,0 hPa 0,0 mm 14,3 km/h (3 Bft) SW 220 ° 5 min 0 min 10,2 °C 20,7 °C
06.05.2026 13:38 20,9 °C 51 % 1003,0 hPa 0,0 mm 15,4 km/h (3 Bft) S-SW 200 ° 5 min 0 min 10,4 °C 20,9 °C
06.05.2026 13:33 21,6 °C 50 % 1002,8 hPa 0,0 mm 9,4 km/h (2 Bft) S 175 ° 4 min 0 min 10,7 °C 21,6 °C
06.05.2026 13:28 21,5 °C 50 % 1002,9 hPa 0,0 mm 15,2 km/h (3 Bft) SO 145 ° 6 min 0 min 10,6 °C 21,5 °C
06.05.2026 13:23 21,4 °C 48 % 1002,9 hPa 0,0 mm 19,4 km/h (3 Bft) O-SO 120 ° 5 min 0 min 9,9 °C 21,4 °C
06.05.2026 13:18 21,6 °C 51 % 1002,8 hPa 0,0 mm 14,2 km/h (3 Bft) N-NO 20 ° 5 min 0 min 11,0 °C 21,6 °C
06.05.2026 13:13 21,9 °C 50 % 1002,8 hPa 0,0 mm 10,0 km/h (2 Bft) SO 130 ° 5 min 0 min 11,0 °C 21,9 °C
06.05.2026 13:08 21,4 °C 47 % 1002,9 hPa 0,0 mm 21,4 km/h (4 Bft) NO 35 ° 5 min 0 min 9,6 °C 21,4 °C
06.05.2026 13:03 22,4 °C 48 % 1002,7 hPa 0,0 mm 8,7 km/h (2 Bft) O-NO 60 ° 5 min 0 min 10,8 °C 22,4 °C
06.05.2026 12:58 21,5 °C 50 % 1003,9 hPa 0,0 mm 11,5 km/h (2 Bft) SO 145 ° 5 min 0 min 10,6 °C 21,5 °C
06.05.2026 12:53 21,4 °C 52 % 1003,9 hPa 0,0 mm 15,9 km/h (3 Bft) O 100 ° 5 min 0 min 11,1 °C 21,4 °C
06.05.2026 12:48 22,0 °C 51 % 1003,8 hPa 0,0 mm 7,4 km/h (2 Bft) S-SO 150 ° 5 min 0 min 11,4 °C 22,0 °C
06.05.2026 12:43 20,6 °C 54 % 1004,1 hPa 0,0 mm 2,0 km/h (1 Bft) O 100 ° 5 min 0 min 11,0 °C 20,6 °C
06.05.2026 12:38 20,1 °C 55 % 1004,2 hPa 0,0 mm 9,2 km/h (2 Bft) N-NW 345 ° 5 min 0 min 10,8 °C 20,1 °C
06.05.2026 12:33 19,8 °C 54 % 1004,2 hPa 0,0 mm 7,8 km/h (2 Bft) SW 220 ° 3 min 0 min 10,2 °C 19,8 °C
06.05.2026 12:28 20,8 °C 54 % 1003,0 hPa 0,0 mm 15,6 km/h (3 Bft) SO 135 ° 4 min 0 min 11,1 °C 20,8 °C
06.05.2026 12:23 20,6 °C 55 % 1003,0 hPa 0,0 mm 6,9 km/h (2 Bft) SO 125 ° 5 min 0 min 11,2 °C 20,6 °C
06.05.2026 12:18 20,4 °C 53 % 1003,0 hPa 0,0 mm 10,7 km/h (2 Bft) W 280 ° 5 min 0 min 10,5 °C 20,4 °C
06.05.2026 12:13 20,7 °C 52 % 1004,1 hPa 0,0 mm 3,8 km/h (1 Bft) W 260 ° 5 min 0 min 10,5 °C 20,7 °C
06.05.2026 12:08 21,0 °C 53 % 1004,0 hPa 0,0 mm 9,2 km/h (2 Bft) O-NO 60 ° 5 min 0 min 11,0 °C 21,0 °C
06.05.2026 12:03 20,8 °C 55 % 1004,0 hPa 0,0 mm 10,1 km/h (2 Bft) S-SW 200 ° 5 min 0 min 11,4 °C 20,8 °C
_ Min-Zeit 03:58 17:03 17:48 - 18:48 - - - - 17:43 03:58
Minimum _ 12,3 °C 32 % 999,0 hPa - 0,0 km/h (0 Bft) - - - - 7,6 °C 12,3 °C
_ Max-Zeit 17:08 06:18 04:33 17:03 19:43 - - 11:18 17:03 10:48 17:08
Maximum _ 26,0 °C 94 % 1007,7 hPa 0,0 mm 30,5 km/h
S-SO (5 Bft)
- - 8 min 0 min 12,5 °C 26,0 °C
Durchschnitt _ 18,1 °C 67 % 1004,1 hPa #0,0 mm 6,2 km/h (2 Bft) S - #7:50 h #0 min. 10,8 °C 18,1 °C